GW0704 Weather Reports


time (UTC)temp
C
wind
direction
speed
KPH
gust
KPH
rain 1hr
cm
rain 24hr
cm
rain mn
cm
humidity
%
barometer
mb
20260506004404 15 15 0.0 0.0 0.00 0.23 0.23 94 1004.1
20260506003904 15 15 0.0 0.0 0.00 0.23 0.23 93 1004.1
20260506003404 15 15 0.0 0.0 0.00 0.23 0.23 93 1004.1
20260506002904 15 15 0.0 0.0 0.00 0.23 0.23 93 1003.9
20260506002404 15 15 0.0 0.0 0.03 0.23 0.23 93 1003.7
20260506001903 15 15 0.0 0.0 0.03 0.23 0.23 92 1003.7
20260506001404 15 15 0.0 0.0 0.03 0.23 0.23 92 1003.6
20260506000904 15 15 0.0 0.0 0.03 0.23 0.23 91 1003.6
20260506000404 15 15 0.0 0.0 0.03 0.23 0.23 91 1003.5
20260505235904 15 15 0.0 0.0 0.03 0.23 0.23 91 1003.4
20260505235404 15 15 0.0 0.0 0.05 0.23 0.23 91 1003.3
20260505234904 15 15 0.0 0.0 0.05 0.23 0.23 90 1003.2
20260505233904 16 15 0.0 0.0 0.08 0.23 0.23 87 1003.2
20260505233404 16 15 0.0 1.6 0.08 0.23 0.23 86 1003.2
20260505232904 16 15 4.8 12.9 0.08 0.23 0.23 86 1003.1
20260505232404 16 14 1.6 12.9 0.05 0.20 0.20 89 1003.2
20260505231904 16 59 0.0 0.0 0.05 0.20 0.20 89 1003.3
20260505231404 16 59 0.0 0.0 0.05 0.20 0.20 88 1003.3
20260505230904 16 59 0.0 0.0 0.08 0.20 0.20 86 1003.5
20260505225904 16 69 9.7 27.4 0.20 0.20 0.20 86 1003.6
20260505225404 16 44 0.0 0.0 0.18 0.18 0.18 86 1003.8
20260505224904 16 44 0.0 4.8 0.18 0.18 0.18 86 1003.7
20260505224404 17 51 3.2 12.9 0.18 0.18 0.18 85 1003.5
20260505223904 17 55 3.2 14.5 0.15 0.15 0.15 84 1003.4
20260505223403 17 69 1.6 4.8 0.15 0.15 0.15 83 1003.2
20260505222904 17 59 3.2 11.3 0.15 0.15 0.15 84 1003.2
20260505222404 17 42 0.0 11.3 0.15 0.15 0.15 83 1003.1
20260505221904 17 36 1.6 14.5 0.15 0.15 0.15 82 1003.0
20260505221404 17 43 6.4 20.9 0.15 0.15 0.15 80 1002.9
20260505220904 18 38 11.3 22.5 0.13 0.13 0.13 75 1002.9
20260505220405 21 59 9.7 48.3 0.05 0.05 0.05 65 1002.8
20260505215904 23 56 20.9 37.0 0.00 0.00 0.00 49 1002.1
20260505215404 23 306 8.0 19.3 0.00 0.00 0.00 47 1000.5
20260505214904 24 331 11.3 29.0 0.00 0.00 0.00 47 1000.0
20260505214404 24 281 12.9 24.1 0.00 0.00 0.00 47 999.7
20260505213904 24 282 14.5 29.0 0.00 0.00 0.00 46 999.7
20260505213404 24 267 19.3 38.6 0.00 0.00 0.00 46 999.5
20260505212905 24 266 11.3 32.2 0.00 0.00 0.00 46 999.5
20260505212404 25 289 17.7 35.4 0.00 0.00 0.00 45 999.4
20260505211904 25 311 11.3 32.2 0.00 0.00 0.00 45 999.3
20260505211404 25 272 16.1 33.8 0.00 0.00 0.00 44 999.3
20260505210404 25 277 20.9 33.8 0.00 0.00 0.00 45 999.2
20260505205905 25 276 16.1 27.4 0.00 0.00 0.00 45 999.4
20260505205404 25 278 9.7 29.0 0.00 0.00 0.00 46 999.3
20260505203905 25 281 16.1 38.6 0.00 0.00 0.00 44 999.4
20260505203404 25 296 9.7 24.1 0.00 0.00 0.00 45 999.3
20260505202904 25 298 16.1 41.8 0.00 0.00 0.00 43 999.3
20260505202404 26 292 25.7 41.8 0.00 0.00 0.00 42 999.1
20260505201904 26 296 17.7 48.3 0.00 0.00 0.00 37 999.2
20260505201404 26 338 20.9 37.0 0.00 0.00 0.00 36 999.3
20260505200405 27 325 14.5 37.0 0.00 0.00 0.00 37 999.4
20260505195904 27 351 27.4 45.1 0.00 0.00 0.00 35 999.5
20260505195405 27 343 24.1 46.7 0.00 0.00 0.00 35 999.6
20260505194904 27 319 14.5 33.8 0.00 0.00 0.00 35 999.6
20260505194404 27 331 16.1 33.8 0.00 0.00 0.00 35 999.6
20260505193904 27 308 20.9 46.7 0.00 0.00 0.00 35 999.6
20260505192904 27 321 24.1 40.2 0.00 0.00 0.00 35 999.7
20260505192404 27 355 17.7 35.4 0.00 0.00 0.00 37 999.9
20260505191905 27 311 4.8 20.9 0.00 0.00 0.00 38 999.8
20260505190904 27 17 14.5 29.0 0.00 0.00 0.00 39 999.9
20260505190405 26 347 25.7 41.8 0.00 0.00 0.00 39 1000.1
20260505185904 26 320 22.5 38.6 0.00 0.00 0.00 40 1000.3
20260505185404 26 341 14.5 37.0 0.00 0.00 0.00 39 1000.4
20260505184904 26 319 22.5 40.2 0.00 0.00 0.00 40 1000.4
20260505184404 26 337 16.1 35.4 0.00 0.00 0.00 42 1000.4
20260505183904 26 335 11.3 29.0 0.00 0.00 0.00 39 1000.4
20260505183404 26 319 16.1 32.2 0.00 0.00 0.00 40 1000.6
20260505182904 26 333 12.9 27.4 0.00 0.00 0.00 41 1000.7
20260505182405 26 324 19.3 35.4 0.00 0.00 0.00 41 1000.7
20260505181904 26 6 22.5 37.0 0.00 0.00 0.00 42 1000.8
20260505181404 25 338 19.3 33.8 0.00 0.00 0.00 42 1001.0
20260505180904 26 332 16.1 41.8 0.00 0.00 0.00 41 1001.1
20260505175404 25 311 16.1 35.4 0.00 0.00 0.00 44 1001.2
20260505174904 25 319 22.5 37.0 0.00 0.00 0.00 44 1001.2
20260505174404 25 312 20.9 41.8 0.00 0.00 0.00 44 1001.5
20260505172904 25 282 19.3 38.6 0.00 0.00 0.00 45 1001.6
20260505172405 25 323 14.5 32.2 0.00 0.00 0.00 46 1001.7
20260505171404 24 327 17.7 35.4 0.00 0.00 0.00 45 1002.0
20260505170904 24 336 20.9 38.6 0.00 0.00 0.00 47 1002.1
20260505170404 23 323 14.5 33.8 0.00 0.00 0.00 46 1002.1
20260505165904 23 324 14.5 32.2 0.00 0.00 0.00 48 1002.2
20260505165404 23 312 8.0 27.4 0.00 0.00 0.00 49 1002.4
20260505164904 23 309 20.9 33.8 0.00 0.03 0.00 48 1002.4
20260505164405 23 317 11.3 32.2 0.00 0.03 0.00 46 1002.3
20260505163903 23 348 11.3 27.4 0.00 0.03 0.00 47 1002.5
20260505163404 23 332 16.1 40.2 0.00 0.03 0.00 47 1002.5
20260505162904 23 338 16.1 32.2 0.00 0.03 0.00 47 1002.6
20260505162404 24 334 12.9 33.8 0.00 0.03 0.00 49 1002.6
20260505161904 24 313 11.3 33.8 0.00 0.05 0.00 49 1002.8
20260505161404 23 346 4.8 20.9 0.00 0.08 0.00 49 1002.8
20260505160404 23 326 11.3 35.4 0.00 0.10 0.00 49 1003.0
20260505152904 22 319 12.9 32.2 0.00 0.10 0.00 50 1003.6
20260505152404 22 298 8.0 22.5 0.00 0.10 0.00 50 1003.7
20260505151404 21 320 6.4 24.1 0.00 0.10 0.00 53 1003.9
20260505150903 20 318 9.7 27.4 0.00 0.10 0.00 51 1003.9
20260505150404 20 313 8.0 22.5 0.00 0.10 0.00 51 1004.0
20260505140404 18 333 12.9 22.5 0.00 0.10 0.00 54 1004.0
20260505124404 15 319 11.3 22.5 0.00 0.10 0.00 63 1004.7
20260505123904 15 313 12.9 20.9 0.00 0.10 0.00 65 1004.6
20260505123404 15 328 12.9 27.4 0.00 0.10 0.00 65 1004.7
20260505122405 13 309 11.3 19.3 0.00 0.10 0.00 77 1004.7
20260505121904 12 144 0.0 0.0 0.00 0.10 0.00 78 1004.8
20260505121404 12 144 0.0 0.0 0.00 0.10 0.00 81 1004.9
20260505120904 11 144 0.0 0.0 0.00 0.10 0.00 81 1005.1
20260505120405 11 144 0.0 8.0 0.00 0.10 0.00 82 1005.2
20260505115905 11 49 0.0 0.0 0.00 0.10 0.00 85 1005.3
20260505115404 10 49 0.0 0.0 0.00 0.10 0.00 88 1005.3
20260505114904 9 49 0.0 0.0 0.00 0.10 0.00 90 1005.4
20260505114404 8 49 0.0 0.0 0.00 0.10 0.00 92 1005.4
20260505113904 8 49 0.0 0.0 0.00 0.10 0.00 94 1005.4
20260505113404 8 49 0.0 0.0 0.00 0.10 0.00 95 1005.3
20260505112904 7 49 0.0 0.0 0.00 0.10 0.00 97 1005.3
20260505111904 6 49 0.0 0.0 0.00 0.10 0.00 97 1005.6
20260505111405 6 49 0.0 0.0 0.00 0.10 0.00 97 1005.5
20260505110904 5 49 0.0 0.0 0.00 0.10 0.00 97 1005.5
20260505110404 5 49 0.0 0.0 0.00 0.10 0.00 97 1005.4
20260505101905 4 49 0.0 0.0 0.00 0.10 0.00 96 1005.5
20260505101405 4 49 0.0 0.0 0.00 0.10 0.00 96 1005.5
20260505100904 4 49 0.0 0.0 0.00 0.10 0.00 96 1005.3
20260505100404 3 49 0.0 0.0 0.00 0.10 0.00 96 1005.3
20260505095904 3 49 0.0 0.0 0.00 0.10 0.00 96 1005.3
20260505095404 3 49 0.0 0.0 0.00 0.10 0.00 96 1005.2
20260505094905 3 49 0.0 0.0 0.00 0.10 0.00 96 1005.1
20260505094404 3 49 0.0 0.0 0.00 0.10 0.00 96 1005.2
20260505093904 3 49 0.0 0.0 0.00 0.10 0.00 96 1005.2
20260505093404 4 49 0.0 0.0 0.00 0.10 0.00 96 1005.3
20260505092905 4 49 0.0 0.0 0.00 0.10 0.00 96 1005.3
20260505091404 4 49 0.0 0.0 0.00 0.10 0.00 96 1005.2
20260505090904 4 49 0.0 0.0 0.00 0.10 0.00 96 1005.3
20260505085904 4 49 0.0 0.0 0.00 0.10 0.00 96 1005.3
20260505085404 4 49 0.0 0.0 0.00 0.10 0.00 96 1005.4
20260505083904 4 49 0.0 0.0 0.00 0.10 0.00 96 1005.5
20260505083404 4 49 0.0 0.0 0.00 0.10 0.00 96 1005.5
20260505082904 4 49 0.0 0.0 0.00 0.10 0.00 96 1005.6
20260505082404 5 49 0.0 0.0 0.00 0.10 0.00 96 1005.6
20260505081904 5 49 0.0 0.0 0.00 0.10 0.00 96 1005.6
20260505081404 5 49 0.0 0.0 0.00 0.10 0.00 96 1005.6
20260505080904 5 49 0.0 0.0 0.00 0.10 0.00 96 1005.6
20260505075904 5 49 0.0 0.0 0.00 0.10 0.00 96 1005.7
20260505075404 5 49 0.0 0.0 0.00 0.10 0.00 95 1005.7
20260505074904 5 49 0.0 0.0 0.00 0.10 0.00 95 1005.7
20260505074404 4 49 0.0 0.0 0.00 0.10 0.00 95 1005.7
20260505073904 5 49 0.0 0.0 0.00 0.10 0.00 95 1005.7
20260505073404 4 49 0.0 0.0 0.00 0.10 0.00 95 1005.7
20260505072905 4 49 0.0 0.0 0.00 0.10 0.00 95 1005.8
20260505072403 4 49 0.0 0.0 0.00 0.10 0.00 95 1005.8
20260505071404 4 49 0.0 0.0 0.00 0.10 0.00 94 1005.7
20260505070904 5 49 0.0 0.0 0.00 0.10 0.00 95 1005.8
20260505065904 5 49 0.0 0.0 0.00 0.10 0.00 94 1005.7
20260505065404 5 49 0.0 0.0 0.00 0.10 0.00 94 1005.7
20260505064904 5 49 0.0 0.0 0.00 0.10 0.00 94 1005.7
20260505064404 5 49 0.0 0.0 0.00 0.10 0.00 94 1005.7
20260505062904 5 49 0.0 0.0 0.00 0.10 0.00 94 1005.7
20260505062405 5 49 0.0 0.0 0.00 0.10 0.00 94 1005.6
20260505061903 5 49 0.0 0.0 0.00 0.10 0.00 93 1005.6
20260505061404 5 49 0.0 0.0 0.00 0.10 0.00 93 1005.6
20260505060904 5 49 0.0 0.0 0.00 0.10 0.00 93 1005.6
20260505060404 5 49 0.0 0.0 0.00 0.10 0.00 93 1005.6
20260505055904 5 49 0.0 0.0 0.00 0.10 0.00 92 1005.6
20260505055404 5 49 0.0 0.0 0.00 0.10 0.00 92 1005.6
20260505054904 6 49 0.0 0.0 0.00 0.10 0.00 91 1005.7
20260505054404 6 49 0.0 0.0 0.00 0.10 0.00 90 1005.6
20260505053904 6 49 0.0 0.0 0.00 0.10 0.00 89 1005.7
20260505053404 7 49 0.0 0.0 0.00 0.10 0.00 90 1005.6
20260505052904 7 49 0.0 0.0 0.00 0.10 0.00 93 1005.6
20260505052404 6 49 0.0 0.0 0.00 0.10 0.00 92 1005.6
20260505051904 6 49 0.0 0.0 0.00 0.10 0.00 92 1005.6
20260505051404 6 49 0.0 0.0 0.00 0.10 0.00 91 1005.7
20260505050904 6 49 0.0 0.0 0.00 0.10 0.00 88 1005.7
20260505050404 7 49 0.0 0.0 0.00 0.10 0.00 90 1005.7
20260505041404 7 49 0.0 0.0 0.00 0.10 0.00 88 1005.2
20260505040904 8 49 0.0 0.0 0.00 0.10 0.00 89 1005.2
20260505040404 8 49 0.0 0.0 0.00 0.10 0.00 89 1005.2
20260505035904 8 49 0.0 0.0 0.00 0.10 0.10 88 1005.2
20260505035404 8 49 0.0 0.0 0.00 0.10 0.10 88 1005.1
20260505034404 8 49 0.0 0.0 0.00 0.10 0.10 87 1005.0
20260505033904 8 49 0.0 0.0 0.00 0.10 0.10 87 1004.9
20260505033404 8 49 0.0 0.0 0.00 0.10 0.10 87 1004.9
20260505032905 8 49 0.0 0.0 0.00 0.10 0.10 87 1004.9
20260505032405 8 49 0.0 0.0 0.00 0.10 0.10 86 1004.9
20260505031905 8 49 0.0 0.0 0.00 0.10 0.10 86 1004.9
20260505031404 9 49 0.0 0.0 0.00 0.10 0.10 84 1004.9
20260505030904 9 49 0.0 0.0 0.00 0.10 0.10 83 1004.8
20260505030405 10 49 0.0 0.0 0.00 0.10 0.10 81 1004.9
20260505025905 10 49 0.0 0.0 0.00 0.10 0.10 80 1004.8
20260505024904 10 49 0.0 0.0 0.00 0.10 0.10 82 1004.9
20260505024404 10 49 0.0 0.0 0.00 0.10 0.10 82 1005.0
20260505023904 10 49 0.0 0.0 0.00 0.10 0.10 82 1005.0
20260505023404 10 49 0.0 0.0 0.00 0.10 0.10 82 1005.0
20260505022404 10 49 0.0 0.0 0.00 0.10 0.10 82 1005.0
20260505021905 10 49 0.0 0.0 0.00 0.10 0.10 81 1005.1
20260505021405 10 49 0.0 0.0 0.00 0.10 0.10 80 1005.1
20260505020904 10 49 0.0 0.0 0.00 0.10 0.10 80 1005.1
20260505020404 10 49 0.0 0.0 0.00 0.10 0.10 80 1005.1
20260505015904 10 49 0.0 0.0 0.00 0.10 0.10 80 1005.1
20260505015404 11 49 0.0 0.0 0.00 0.10 0.10 80 1005.0
20260505014904 11 49 0.0 0.0 0.00 0.10 0.10 79 1005.0
20260505014404 11 49 0.0 0.0 0.00 0.10 0.10 79 1004.9
20260505013904 11 49 0.0 0.0 0.00 0.10 0.10 79 1004.8
20260505013404 11 49 0.0 0.0 0.00 0.10 0.10 78 1004.8
20260505012404 11 49 0.0 0.0 0.00 0.10 0.10 77 1004.7
20260505011405 11 49 0.0 0.0 0.00 0.10 0.10 76 1004.7
20260505010905 11 49 0.0 0.0 0.00 0.10 0.10 76 1004.6
20260505010404 12 49 0.0 0.0 0.00 0.10 0.10 75 1004.5
20260505005404 11 49 0.0 0.0 0.00 0.10 0.10 76 1004.5